When you browse on this site, cookies collect data to enhance your experience and personalize the content and advertising you see.
Visit our Privacy Policy to learn more. By continuing to use the site, you agree to this use of cookies and data.
  • In Österreich
  • Länderverzeichnis
  • Für 7 Tage
  • Wassertemperatur
  • Wetterkarte
  • News
  • Widgets
  • user-avatar
    Anmelden

    Stündliche Wetter Andon

    Heute, 3 April, Freitag

    Zeit Temperatur Niederschläge Wind Luftdruck Luftfeuchtigkeit
    00:00 +7°C° 0 mm 1 m/S 753 mmHg 52%
    01:00 +7°C° 0 mm 1 m/S 753 mmHg 53%
    02:00 +7°C° 0 mm 1 m/S 753 mmHg 53%
    03:00 +7°C° 0 mm 1 m/S 753 mmHg 55%
    04:00 +5°C° 0 mm 0 m/S 753 mmHg 55%
    05:00 +5°C° 0 mm 0 m/S 753 mmHg 56%
    06:00 +4°C° 0 mm 0 m/S 753 mmHg 56%
    07:00 +7°C° 0 mm 1 m/S 753 mmHg 49%
    08:00 +9°C° 0 mm 1 m/S 753 mmHg 42%
    09:00 +10°C° 0 mm 2 m/S 753 mmHg 34%
    10:00 +13°C° 0 mm 2 m/S 753 mmHg 29%
    11:00 +14°C° 0 mm 3 m/S 753 mmHg 25%
    12:00 +17°C° 0 mm 3 m/S 752 mmHg 21%
    13:00 +17°C° 0 mm 3 m/S 752 mmHg 21%
    14:00 +18°C° 0 mm 4 m/S 751 mmHg 21%
    15:00 +18°C° 0 mm 4 m/S 750 mmHg 18%
    16:00 +17°C° 0 mm 3 m/S 750 mmHg 23%
    17:00 +16°C° 0 mm 3 m/S 751 mmHg 27%
    18:00 +14°C° 0 mm 3 m/S 751 mmHg 32%
    19:00 +12°C° 0 mm 3 m/S 751 mmHg 36%
    20:00 +10°C° 0 mm 2 m/S 751 mmHg 39%
    21:00 +9°C° 0 mm 2 m/S 751 mmHg 43%
    22:00 +8°C° 0 mm 2 m/S 751 mmHg 48%
    23:00 +8°C° 0 mm 1 m/S 751 mmHg 53%

    Morgen, 4 April, Samstag

    Zeit Temperatur Niederschläge Wind Luftdruck Luftfeuchtigkeit
    00:00 +7°C° 0 mm 1 m/S 751 mmHg 57%
    01:00 +7°C° 0 mm 1 m/S 750 mmHg 59%
    02:00 +5°C° 0 mm 2 m/S 750 mmHg 62%
    03:00 +5°C° 0 mm 2 m/S 750 mmHg 64%
    04:00 +5°C° 0 mm 2 m/S 750 mmHg 66%
    05:00 +4°C° 0 mm 2 m/S 749 mmHg 69%
    06:00 +4°C° 0 mm 2 m/S 749 mmHg 71%
    07:00 +5°C° 0 mm 3 m/S 749 mmHg 66%
    08:00 +7°C° 0 mm 4 m/S 749 mmHg 60%
    09:00 +9°C° 0 mm 5 m/S 750 mmHg 55%
    10:00 +10°C° 0 mm 5 m/S 750 mmHg 48%
    11:00 +13°C° 0 mm 5 m/S 750 mmHg 41%
    12:00 +14°C° 0 mm 5 m/S 750 mmHg 35%
    13:00 +14°C° 0 mm 5 m/S 750 mmHg 30%
    14:00 +14°C° 0 mm 5 m/S 749 mmHg 25%
    15:00 +14°C° 0 mm 5 m/S 749 mmHg 20%
    16:00 +13°C° 0 mm 5 m/S 750 mmHg 22%
    17:00 +12°C° 0 mm 4 m/S 750 mmHg 23%
    18:00 +11°C° 0 mm 4 m/S 751 mmHg 25%
    19:00 +9°C° 0 mm 3 m/S 751 mmHg 31%
    20:00 +7°C° 0 mm 2 m/S 752 mmHg 36%
    21:00 +5°C° 0 mm 2 m/S 752 mmHg 42%
    22:00 +5°C° 0 mm 1 m/S 752 mmHg 45%
    23:00 +4°C° 0 mm 1 m/S 753 mmHg 47%

    übermorgen, 5 April, Sonntag

    Zeit Temperatur Niederschläge Wind Luftdruck Luftfeuchtigkeit
    00:00 +4°C° 0 mm 1 m/S 753 mmHg 50%
    01:00 +3°C° 0 mm 1 m/S 753 mmHg 49%
    02:00 +3°C° 0 mm 1 m/S 752 mmHg 48%
    03:00 +2°C° 0 mm 1 m/S 752 mmHg 46%
    04:00 +1°C° 0 mm 1 m/S 752 mmHg 46%
    05:00 +1°C° 0 mm 1 m/S 753 mmHg 46%
    06:00 -1°C° 0 mm 0 m/S 753 mmHg 46%
    07:00 +2°C° 0 mm 1 m/S 753 mmHg 39%
    08:00 +5°C° 0 mm 1 m/S 753 mmHg 33%
    09:00 +6°C° 0 mm 2 m/S 753 mmHg 27%
    10:00 +8°C° 0 mm 2 m/S 753 mmHg 25%
    11:00 +10°C° 0 mm 2 m/S 753 mmHg 22%
    12:00 +13°C° 0 mm 2 m/S 753 mmHg 20%
    13:00 +13°C° 0 mm 2 m/S 752 mmHg 19%
    14:00 +13°C° 0 mm 3 m/S 752 mmHg 19%
    15:00 +14°C° 0 mm 3 m/S 751 mmHg 18%
    16:00 +13°C° 0 mm 3 m/S 752 mmHg 21%
    17:00 +13°C° 0 mm 2 m/S 752 mmHg 24%
    18:00 +12°C° 0 mm 2 m/S 752 mmHg 27%
    19:00 +9°C° 0 mm 2 m/S 752 mmHg 33%
    20:00 +8°C° 0 mm 1 m/S 753 mmHg 38%
    21:00 +6°C° 0 mm 1 m/S 753 mmHg 44%
    22:00 +4°C° 0 mm 0 m/S 753 mmHg 47%
    23:00 +4°C° 0 mm 0 m/S 753 mmHg 49%

    6 April, Montag

    Zeit Temperatur Niederschläge Wind Luftdruck Luftfeuchtigkeit
    00:00 +3°C° 0 mm 0 m/S 753 mmHg 51%
    01:00 +3°C° 0 mm 0 m/S 753 mmHg 53%
    02:00 +2°C° 0 mm 0 m/S 753 mmHg 54%
    03:00 +2°C° 0 mm 0 m/S 753 mmHg 55%
    04:00 +2°C° 0 mm 0 m/S 753 mmHg 57%
    05:00 +1°C° 0 mm 0 m/S 753 mmHg 59%
    06:00 +1°C° 0 mm 0 m/S 753 mmHg 60%
    07:00 +3°C° 0 mm 0 m/S 753 mmHg 53%
    08:00 +7°C° 0 mm 1 m/S 753 mmHg 46%
    09:00 +9°C° 0 mm 1 m/S 753 mmHg 39%
    10:00 +10°C° 0 mm 2 m/S 753 mmHg 34%
    11:00 +13°C° 0 mm 2 m/S 752 mmHg 30%
    12:00 +14°C° 0 mm 3 m/S 752 mmHg 25%
    13:00 +16°C° 0 mm 3 m/S 751 mmHg 25%
    14:00 +17°C° 0 mm 4 m/S 751 mmHg 26%
    15:00 +18°C° 0 mm 4 m/S 750 mmHg 26%
    16:00 +17°C° 0 mm 4 m/S 750 mmHg 29%
    17:00 +15°C° 0 mm 4 m/S 750 mmHg 33%
    18:00 +14°C° 0 mm 4 m/S 750 mmHg 36%
    19:00 +12°C° 0 mm 3 m/S 750 mmHg 40%
    20:00 +10°C° 0 mm 2 m/S 750 mmHg 44%
    21:00 +8°C° 0 mm 2 m/S 750 mmHg 47%
    22:00 +9°C° 0 mm 1 m/S 750 mmHg 51%
    23:00 +8°C° 0 mm 1 m/S 750 mmHg 56%

    7 April, Dienstag

    Zeit Temperatur Niederschläge Wind Luftdruck Luftfeuchtigkeit
    00:00 +7°C° 0 mm 1 m/S 750 mmHg 60%
    01:00 +6°C° 0 mm 1 m/S 750 mmHg 62%
    02:00 +6°C° 0 mm 1 m/S 750 mmHg 64%
    03:00 +6°C° 0 mm 1 m/S 749 mmHg 66%
    04:00 +5°C° 0 mm 1 m/S 749 mmHg 68%
    05:00 +5°C° 0 mm 1 m/S 749 mmHg 70%
    06:00 +5°C° 0 mm 1 m/S 749 mmHg 73%
    07:00 +6°C° 0 mm 2 m/S 749 mmHg 64%
    08:00 +8°C° 0 mm 3 m/S 749 mmHg 55%
    09:00 +11°C° 0 mm 4 m/S 749 mmHg 46%
    10:00 +13°C° 0 mm 4 m/S 748 mmHg 42%
    11:00 +15°C° 0 mm 5 m/S 748 mmHg 38%
    12:00 +17°C° 0 mm 6 m/S 748 mmHg 33%
    13:00 +17°C° 0 mm 6 m/S 748 mmHg 33%
    14:00 +19°C° 0 mm 5 m/S 748 mmHg 34%
    15:00 +19°C° 0 mm 5 m/S 747 mmHg 34%
    16:00 +17°C° 0 mm 5 m/S 747 mmHg 35%
    17:00 +16°C° 0 mm 5 m/S 747 mmHg 35%
    18:00 +15°C° 0 mm 4 m/S 747 mmHg 36%
    19:00 +13°C° 0 mm 4 m/S 748 mmHg 36%
    20:00 +11°C° 0 mm 3 m/S 748 mmHg 37%
    21:00 +8°C° 0 mm 2 m/S 749 mmHg 37%
    22:00 +7°C° 0 mm 2 m/S 749 mmHg 40%
    23:00 +6°C° 0 mm 2 m/S 749 mmHg 42%

    8 April, Mittwoch

    Zeit Temperatur Niederschläge Wind Luftdruck Luftfeuchtigkeit
    00:00 +6°C° 0 mm 2 m/S 749 mmHg 45%
    01:00 +6°C° 0 mm 1 m/S 749 mmHg 48%
    02:00 +5°C° 0 mm 1 m/S 749 mmHg 51%
    03:00 +5°C° 0 mm 1 m/S 749 mmHg 54%
    04:00 +4°C° 0 mm 1 m/S 750 mmHg 55%
    05:00 +4°C° 0 mm 1 m/S 750 mmHg 57%
    06:00 +3°C° 0 mm 1 m/S 750 mmHg 58%
    07:00 +5°C° 0 mm 2 m/S 750 mmHg 50%
    08:00 +7°C° 0 mm 2 m/S 750 mmHg 42%
    09:00 +9°C° 0 mm 3 m/S 751 mmHg 34%
    10:00 +10°C° 0 mm 4 m/S 750 mmHg 31%
    11:00 +11°C° 0 mm 4 m/S 750 mmHg 27%
    12:00 +13°C° 0 mm 5 m/S 750 mmHg 24%
    13:00 +13°C° 0 mm 5 m/S 750 mmHg 22%
    14:00 +14°C° 0 mm 5 m/S 750 mmHg 21%
    15:00 +14°C° 0 mm 5 m/S 750 mmHg 20%
    16:00 +13°C° 0 mm 4 m/S 750 mmHg 21%
    17:00 +13°C° 0 mm 4 m/S 750 mmHg 23%
    18:00 +12°C° 0 mm 3 m/S 750 mmHg 24%
    19:00 +10°C° 0 mm 2 m/S 751 mmHg 30%
    20:00 +8°C° 0 mm 2 m/S 752 mmHg 35%
    21:00 +6°C° 0 mm 2 m/S 752 mmHg 41%
    22:00 +6°C° 0 mm 1 m/S 752 mmHg 44%
    23:00 +6°C° 0 mm 1 m/S 753 mmHg 47%
    Mehr zeigen